189P/NEAT (2002)

Japanese version
Home page
Total 6,336 html files since Dec. 4, 1995
Updated on July 16, 2007

---------------------------------------------------------------------

* Profile

Designation 189P/2002 O5
Discovery Date July 30, 2002
Magnitude 17.2 mag
Discoverer Near-Earth-Asteroid Tracking Team (Jet Propulsion Laboratory)

* Orbital Elements

                    Epoch = 2002 July 25.0 TT
     T = 2002 Aug.  3.10144 TT        Peri. =  15.30571
     e = 0.5973957                    Node  = 282.20995 2000.0
     q = 1.1742394 AU                 Incl. =  20.39966
       a =  2.9166089 AU   n = 0.19787311   P =   4.98 years

* Finding Charts

* Magnitudes Graph

        m1 = 18.0 + 5 log d + 10.0 log r

---------------------------------------------------------------------

The orbital elements are printed on IAUC 8856.
The charts are made with StellaNavigator Ver.2.0 for Windows (AstroArts / ASCII).
The magnitudes graphs are made with Comet for Windows.

---------------------------------------------------------------------

Copyright(C) 1995-2008 Seiichi Yoshida (comet@aerith.net). All rights reserved.